Back to catalog

SL-16 DEB

AliveLEO
NORAD 22336·DEBRIS·🇷🇺 Russia

Launched Dec 25, 1992 from Baikonur Cosmodrome

Loading…

Next Passes (next 24 hours)

TLE

FreshSource: Space-Track

Epoch: Sep 14, 2026, 08:33 UTC

1 22336U 92093Z   26257.35685689  .00000326  00000-0  25669-3 0  9993
2 22336  71.1334  39.2735 0116954 239.9236 119.0240 13.95742765710000

Track SL-16 DEB in real time with AllMySat

Download on the App Store